Location: Newark
(34.3481°N, 134.0494°E)
Time: 10:42:28
(UTC+00:00)

Envisat - Visible Passes

Search period start: 12 December 2019 00:00
Search period end: 22 December 2019 00:00
Orbit: 764 x 766 km, 98.1° (Epoch: 11 December)

Date Brightness Start Highest point End Pass type
(mag) Time Alt. Az. Time Alt. Az. Time Alt. Az.
12 Dec 4.3 09:39:27 10° SSW 09:44:13 41° W 09:49:00 10° NNW visible
13 Dec 2.9 09:02:21 10° SSE 09:07:25 83° ENE 09:12:31 10° N visible
13 Dec 4.7 21:15:13 10° NNE 21:19:56 38° E 21:24:37 10° SSE visible
14 Dec 3.6 08:26:15 10° SE 08:30:48 35° ENE 08:35:22 10° N visible
14 Dec 5.4 10:05:56 10° SW 10:09:50 22° W 10:13:46 10° NW visible
14 Dec 6.0 20:39:53 10° NE 20:42:56 16° E 20:45:58 10° SE visible
15 Dec 3.8 09:27:58 10° S 09:32:55 53° W 09:37:53 10° NNW visible
16 Dec 3.0 08:51:10 10° SSE 08:56:10 64° ENE 09:01:12 10° N visible
16 Dec 6.2 10:33:49 10° WSW 10:35:33 12° W 10:37:17 10° WNW visible
16 Dec 5.2 21:04:11 10° NE 21:08:36 29° E 21:12:59 10° SSE visible
17 Dec 3.9 08:15:23 10° SE 08:19:36 27° ENE 08:23:50 10° NNE visible
17 Dec 5.0 09:54:08 10° SSW 09:58:29 29° W 10:02:52 10° NW visible
17 Dec 6.2 20:29:39 10° ENE 20:31:33 12° E 20:33:25 10° ESE visible
18 Dec 3.3 09:16:34 10° S 09:21:37 70° W 09:26:41 10° NNW visible
18 Dec 3.9 21:29:12 10° NNE 21:34:11 54° E 21:39:08 10° S visible
19 Dec 3.2 08:40:04 10° SSE 08:44:55 49° ENE 08:49:49 10° N visible
19 Dec 5.9 10:21:11 10° SW 10:24:09 16° W 10:27:08 10° WNW visible
19 Dec 5.6 20:53:17 10° NE 20:57:15 23° E 21:01:12 10° SSE visible
20 Dec 4.5 09:42:30 10° SSW 09:47:09 37° W 09:51:51 10° NNW visible
21 Dec 3.0 09:05:16 10° SSE 09:10:20 90° W 09:15:27 10° NNW visible
21 Dec 4.5 21:18:03 10° NNE 21:22:52 42° E 21:27:39 10° S visible
